DW3371 Weather Reports


Display with metric or nautical units.
time (UTC)temp
F
wind
direction
speed
MPH
gust
MPH
rain 1hr
in
rain 24hr
in
rain mn
in
humidity
%
barometer
mb
20260831202636 63 0 4.0 11.0 0.00 0.00 0.00 73 1015.0
20260831192633 65 0 7.0 15.0 0.00 0.00 0.00 70 1014.3
20260831185633 67 292 8.0 15.0 0.00 0.00 0.00 68 1013.7
20260831182633 68 301 7.0 14.0 0.00 0.00 0.00 65 1013.0
20260831175638 70 283 8.0 17.0 0.00 0.00 0.00 62 1012.6
20260831172630 71 0 11.0 21.0 0.00 0.00 0.00 59 1012.2
20260831165625 72 304 10.0 17.0 0.00 0.00 0.00 58 1011.7
20260831162633 73 0 12.0 21.0 0.00 0.00 0.00 57 1011.4
20260831155625 74 0 10.0 24.0 0.00 0.00 0.00 57 1010.9
20260831152634 73 0 11.0 27.0 0.00 0.00 0.00 57 1010.7
20260831142623 73 0 9.0 21.0 0.00 0.00 0.00 64 1010.0
20260831135628 71 282 10.0 18.0 0.00 0.00 0.00 68 1010.0
20260831132620 72 0 10.0 21.0 0.00 0.00 0.00 64 1009.5
20260831125618 71 280 12.0 20.0 0.00 0.00 0.00 62 1009.0
20260831122618 71 262 9.0 21.0 0.00 0.00 0.00 64 1008.6
20260831115620 70 312 11.0 19.0 0.00 0.00 0.00 65 1008.0
20260831112618 69 299 9.0 18.0 0.00 0.00 0.00 65 1007.9
20260831102619 67 282 12.0 20.0 0.00 0.00 0.00 71 1007.1
20260831092616 65 312 11.0 22.0 0.00 0.00 0.00 75 1006.5
20260831085624 63 286 9.0 16.0 0.00 0.00 0.00 77 1006.0
20260831082619 62 0 10.0 17.0 0.00 0.00 0.00 80 1005.6
20260831075611 60 304 10.0 18.0 0.00 0.00 0.00 82 1005.3
20260831072610 60 250 9.0 17.0 0.00 0.00 0.00 83 1004.8
20260831065615 59 246 8.0 18.0 0.00 0.00 0.00 84 1004.4
20260831062612 58 238 6.0 14.0 0.00 0.00 0.00 84 1003.9
20260831055619 58 0 7.0 13.0 0.00 0.00 0.00 84 1003.4
20260831052609 57 0 4.0 11.0 0.00 0.00 0.00 85 1003.1
20260831045608 57 0 6.0 11.0 0.00 0.00 0.00 85 1002.9
20260831042608 58 244 6.0 17.0 0.00 0.00 0.00 84 1002.3
20260831035618 59 262 8.0 16.0 0.00 0.00 0.00 83 1002.2
20260831032609 61 253 6.0 13.0 0.00 0.03 0.00 87 1001.9
20260831025606 61 200 4.0 10.0 0.00 0.03 0.00 87 1001.7
20260831012604 61 194 4.0 9.0 0.00 0.05 0.00 87 1002.3
20260831005609 61 191 4.0 10.0 0.00 0.06 0.00 86 1002.4
20260831002602 61 0 4.0 11.0 0.00 0.06 0.00 85 1002.4
20260830235606 62 227 5.0 18.0 0.00 0.10 0.00 83 1002.6
20260830232557 63 0 5.0 12.0 0.00 0.18 0.00 83 1002.7
20260830215559 64 190 2.0 7.0 0.00 0.25 0.20 78 1002.9